SVA632 OJAI-OEJN

Flight info

Callsign SVA632
Flight time N/A
Altitude 39000
Route QTR01 L513 MUNRA M449 WEJ T510 RBG B544 NOMDA
Aircraft B77W/H-SDE1E2E3FGHIJ2J3J4J5M1RWXY/LB1D1

Departure

Time 2026-04-30 22:01
Airport Queen Alia International Airport (OJAI)

Arrival

Time N/A
Airport King Abdulaziz International Airport (OEJN)
Time Latitude Longitude Altitude Speed Heading
2026-04-30 21:19 31.72063 35.98957 2421 ft 0 kts 349°
2026-04-30 21:48 31.72059 35.98958 2419 ft 2 kts 349°
2026-04-30 21:48 31.72041 35.98961 2420 ft 2 kts 349°
2026-04-30 21:49 31.72026 35.98964 2419 ft 3 kts 338°
2026-04-30 21:49 31.72013 35.98975 2419 ft 3 kts 288°
2026-04-30 21:49 31.72011 35.98997 2420 ft 3 kts 260°
2026-04-30 21:49 31.72014 35.99015 2420 ft 1 kts 260°
2026-04-30 21:50 31.72015 35.99017 2420 ft 4 kts 260°
2026-04-30 21:52 31.72012 35.98997 2420 ft 6 kts 259°
2026-04-30 21:52 31.72007 35.98968 2420 ft 5 kts 257°
2026-04-30 21:53 31.71979 35.98919 2420 ft 7 kts 216°
2026-04-30 21:53 31.71967 35.98913 2421 ft 4 kts 198°
2026-04-30 21:53 31.71911 35.98919 2420 ft 12 kts 171°
2026-04-30 21:53 31.71857 35.98994 2419 ft 15 kts 85°
2026-04-30 21:54 31.71875 35.99130 2421 ft 12 kts 79°
2026-04-30 21:54 31.71885 35.99193 2420 ft 10 kts 81°
2026-04-30 21:54 31.71899 35.99305 2420 ft 18 kts 81°
2026-04-30 21:54 31.71921 35.99475 2422 ft 25 kts 81°
2026-04-30 21:55 31.71957 35.99696 2420 ft 28 kts 78°
2026-04-30 21:55 31.71984 35.99881 2423 ft 26 kts 81°
2026-04-30 21:55 31.72016 36.00113 2420 ft 31 kts 80°
2026-04-30 21:55 31.72047 36.00338 2420 ft 26 kts 80°
2026-04-30 21:56 31.72079 36.00542 2420 ft 19 kts 81°
2026-04-30 21:56 31.72105 36.00714 2420 ft 25 kts 78°
2026-04-30 21:56 31.72135 36.00935 2420 ft 28 kts 82°
2026-04-30 21:56 31.72166 36.01147 2420 ft 19 kts 80°
2026-04-30 21:57 31.72190 36.01301 2421 ft 22 kts 79°
2026-04-30 21:57 31.72218 36.01505 2422 ft 29 kts 81°
2026-04-30 21:57 31.72247 36.01715 2419 ft 21 kts 83°
2026-04-30 21:57 31.72204 36.01798 2421 ft 13 kts 158°
2026-04-30 21:58 31.72151 36.01814 2420 ft 0 kts 167°
2026-04-30 22:00 31.72134 36.01818 2423 ft 5 kts 170°
2026-04-30 22:00 31.71993 36.01806 2422 ft 12 kts 239°
2026-04-30 22:00 31.71970 36.01709 2425 ft 0 kts 260°
2026-04-30 22:01 31.71963 36.01659 2422 ft 31 kts 261°
2026-04-30 22:01 31.71867 36.01003 2421 ft 131 kts 262°
2026-04-30 22:01 31.71677 35.99616 2690 ft 196 kts 262°
2026-04-30 22:01 31.71448 35.98048 4076 ft 193 kts 261°
2026-04-30 22:02 31.71202 35.96388 4778 ft 220 kts 261°
2026-04-30 22:02 31.70927 35.94503 5055 ft 246 kts 261°
2026-04-30 22:02 31.70627 35.92491 5714 ft 254 kts 256°
2026-04-30 22:02 31.69757 35.90668 6211 ft 265 kts 220°
2026-04-30 22:03 31.68102 35.89759 6963 ft 266 kts 185°
2026-04-30 22:03 31.66274 35.89881 7790 ft 267 kts 170°
2026-04-30 22:03 31.64424 35.90280 8536 ft 274 kts 168°
2026-04-30 22:03 31.63181 35.90571 9085 ft 276 kts 168°
2026-04-30 22:04 31.61298 35.91025 10020 ft 276 kts 168°
2026-04-30 22:04 31.59422 35.91483 10911 ft 276 kts 168°
2026-04-30 22:04 31.55635 35.92405 12583 ft 280 kts 169°
2026-04-30 22:05 31.53718 35.92868 13465 ft 282 kts 170°
2026-04-30 22:05 31.51749 35.93341 13949 ft 299 kts 170°
2026-04-30 22:05 31.49621 35.93848 14136 ft 325 kts 170°
2026-04-30 22:05 31.47317 35.94395 14302 ft 350 kts 170°
2026-04-30 22:06 31.44862 35.94978 14645 ft 368 kts 170°
2026-04-30 22:06 31.39685 35.96210 15889 ft 388 kts 171°
2026-04-30 22:06 31.37062 35.96834 16632 ft 393 kts 171°
2026-04-30 22:07 31.34356 35.97476 17301 ft 402 kts 172°
2026-04-30 22:07 31.31592 35.98131 18015 ft 408 kts 172°
2026-04-30 22:07 31.28785 35.98795 18683 ft 414 kts 172°
2026-04-30 22:07 31.25938 35.99468 19305 ft 420 kts 173°
2026-04-30 22:08 31.23044 36.00152 19875 ft 427 kts 173°
2026-04-30 22:08 31.20105 36.00845 20459 ft 433 kts 173°
2026-04-30 22:08 31.17133 36.01546 21060 ft 439 kts 173°
2026-04-30 22:08 31.14115 36.02257 21637 ft 445 kts 173°
2026-04-30 22:09 31.11053 36.02979 22147 ft 452 kts 174°
2026-04-30 22:09 31.07943 36.03710 22692 ft 459 kts 174°
2026-04-30 22:09 31.04792 36.04452 23246 ft 464 kts 174°
2026-04-30 22:09 31.01644 36.05193 23747 ft 470 kts 174°
2026-04-30 22:10 30.98423 36.05951 24243 ft 473 kts 174°
2026-04-30 22:10 30.95179 36.06715 24793 ft 476 kts 174°
2026-04-30 22:10 30.91922 36.07481 25302 ft 480 kts 174°
2026-04-30 22:10 30.88635 36.08253 25801 ft 483 kts 174°
2026-04-30 22:11 30.81997 36.09808 26721 ft 490 kts 174°
2026-04-30 22:11 30.78639 36.10595 27173 ft 494 kts 174°
2026-04-30 22:11 30.75264 36.11384 27649 ft 496 kts 174°
2026-04-30 22:12 30.71872 36.12178 28211 ft 497 kts 175°
2026-04-30 22:12 30.68485 36.12972 28791 ft 497 kts 175°
2026-04-30 22:12 30.65096 36.13765 29380 ft 497 kts 175°
2026-04-30 22:12 30.61702 36.14558 29924 ft 497 kts 175°
2026-04-30 22:13 30.58319 36.15348 30451 ft 496 kts 175°
2026-04-30 22:13 30.54939 36.16136 30971 ft 494 kts 175°
2026-04-30 22:13 30.51573 36.16921 31494 ft 493 kts 175°
2026-04-30 22:13 30.48216 36.17703 32023 ft 491 kts 175°
2026-04-30 22:14 30.44871 36.18481 32567 ft 488 kts 176°
2026-04-30 22:14 30.41551 36.19253 33111 ft 486 kts 176°
2026-04-30 22:14 30.38235 36.20023 33676 ft 483 kts 176°
2026-04-30 22:14 30.34949 36.20787 34197 ft 479 kts 176°
2026-04-30 22:15 30.31704 36.21541 34784 ft 472 kts 176°
2026-04-30 22:15 30.28554 36.22276 35498 ft 461 kts 176°
2026-04-30 22:15 30.25450 36.23001 36207 ft 448 kts 176°
2026-04-30 22:15 30.22423 36.23707 36872 ft 438 kts 177°
2026-04-30 22:16 30.19462 36.24392 37333 ft 431 kts 177°
2026-04-30 22:16 30.16552 36.25063 37830 ft 423 kts 177°
2026-04-30 22:17 30.07899 36.27039 38101 ft 427 kts 177°
2026-04-30 22:17 29.99060 36.29067 37997 ft 443 kts 177°
2026-04-30 22:18 29.95983 36.29771 37528 ft 458 kts 176°
2026-04-30 22:18 29.89542 36.31243 36671 ft 480 kts 176°
2026-04-30 22:19 29.83011 36.32759 36066 ft 478 kts 176°
2026-04-30 22:19 29.79737 36.33516 36145 ft 482 kts 176°
2026-04-30 22:20 29.69752 36.35798 36211 ft 494 kts 176°
2026-04-30 22:20 29.59583 36.38124 36186 ft 498 kts 176°
2026-04-30 22:21 29.52782 36.39678 36209 ft 497 kts 176°
2026-04-30 22:21 29.45999 36.41223 36194 ft 496 kts 176°
2026-04-30 22:22 29.39276 36.42643 36211 ft 492 kts 179°
2026-04-30 22:22 29.32524 36.43823 36183 ft 490 kts 180°
2026-04-30 22:23 29.25777 36.45009 36187 ft 490 kts 179°
2026-04-30 22:23 29.19048 36.46231 36196 ft 489 kts 179°
2026-04-30 22:24 29.12321 36.47460 36175 ft 489 kts 179°
2026-04-30 22:24 29.05594 36.48679 36187 ft 489 kts 179°
2026-04-30 22:25 28.98854 36.49883 36194 ft 490 kts 180°
2026-04-30 22:25 28.92116 36.51084 36187 ft 490 kts 180°
2026-04-30 22:26 28.82060 36.52880 36186 ft 489 kts 180°
2026-04-30 22:27 28.75290 36.54086 36192 ft 489 kts 180°
2026-04-30 22:27 28.65236 36.55876 36192 ft 489 kts 180°
2026-04-30 22:28 28.55149 36.57671 36198 ft 489 kts 180°
2026-04-30 22:29 28.41718 36.60070 36212 ft 489 kts 180°
2026-04-30 22:30 28.28436 36.60630 36204 ft 471 kts 192°
2026-04-30 22:31 28.18615 36.59999 36220 ft 472 kts 192°
2026-04-30 22:32 28.02265 36.59068 36208 ft 472 kts 192°
2026-04-30 22:33 27.85845 36.58151 36220 ft 472 kts 192°
2026-04-30 22:35 27.69464 36.57237 36232 ft 470 kts 192°
2026-04-30 22:36 27.53103 36.56323 36204 ft 473 kts 192°
2026-04-30 22:37 27.39974 36.55595 36193 ft 471 kts 193°
2026-04-30 22:38 27.26883 36.54868 36162 ft 470 kts 193°
2026-04-30 22:39 27.17082 36.54326 36173 ft 470 kts 193°
2026-04-30 22:40 26.97485 36.53230 36158 ft 470 kts 193°
2026-04-30 22:41 26.81166 36.52317 36152 ft 469 kts 193°
2026-04-30 22:43 26.61652 36.51229 36142 ft 468 kts 192°
2026-04-30 22:44 26.48659 36.50505 36115 ft 467 kts 192°
2026-04-30 22:45 26.29242 36.49428 36161 ft 466 kts 192°
2026-04-30 22:46 26.22745 36.49382 36128 ft 479 kts 178°
2026-04-30 22:47 26.12289 36.59455 36166 ft 542 kts 124°
2026-04-30 22:48 26.05294 36.74419 36140 ft 546 kts 124°
2026-04-30 22:49 25.94325 36.96589 36154 ft 545 kts 125°
2026-04-30 22:51 25.83373 37.18608 36147 ft 542 kts 127°
2026-04-30 22:51 25.78841 37.25084 36140 ft 524 kts 143°
2026-04-30 22:52 25.77062 37.26966 36138 ft 521 kts 147°
2026-04-30 22:53 25.65335 37.35999 36162 ft 517 kts 155°
2026-04-30 22:53 25.56368 37.42703 36163 ft 519 kts 154°
2026-04-30 22:55 25.41511 37.53889 36158 ft 513 kts 154°
2026-04-30 22:56 25.29779 37.62683 36162 ft 507 kts 154°
2026-04-30 22:57 25.15218 37.73569 36364 ft 511 kts 155°
2026-04-30 22:57 25.09313 37.77986 36751 ft 513 kts 155°
2026-04-30 22:58 25.03381 37.82419 37100 ft 517 kts 155°
2026-04-30 22:59 24.94423 37.89110 37485 ft 520 kts 155°
2026-04-30 22:59 24.85402 37.95828 37770 ft 523 kts 155°